[[{"header":{"parameterUnit":"m.s-1","parameterCategory":1,"la1":30.2991,"la2":30.254,"lo1":-89.0895,"lo2":-89.0444,"dy":0.0017,"dx":0.0017,"nx":28,"ny":28,"refTime":"2024-08-22T09:00:00:Z","depth":0,"parameterNumber":2,"parameterNumberName":"U-component_of_WINDS"},"data":[0,0,0,0,0,0,0,0,0,0,0,0,0,0,0,0,0,0,0,0,0,0,0,0,0,0,0,0,0,0,0,0,0,0,0,0,0,0,0,0,0,0,0,0,0,0,0,0,0,0,0,0,0,0,0,0,0,0,-5.8318,-5.8318,0,-5.84,-5.8401,-5.8402,-5.8329,-5.8326,-5.8323,-5.832,-5.84,-5.8405,-5.841,0,0,0,0,0,0,0,0,0,0,0,0,0,-5.809,-5.8095,-5.8317,-5.8319,-5.832,-5.84,-5.8401,-5.8402,-5.8329,-5.8326,-5.8322,-5.8319,-5.8399,-5.8404,-5.841,0,0,0,0,0,0,0,0,0,0,0,0,0,-5.8182,-5.8096,-5.8317,-5.8293,-5.8292,-5.84,-5.8401,-5.8403,-5.833,-5.8326,-5.8321,-5.8317,-5.8397,-5.8404,-5.8411,-5.8546,0,0,-5.8434,-5.8437,0,0,0,0,0,0,0,0,-5.8177,-5.8191,-5.8296,-5.8295,-5.8294,-5.835,-5.835,-5.8451,-5.8331,-5.8315,-5.832,-5.8315,-5.8387,-5.8395,-5.842,-5.855,-5.8553,-5.8434,-5.8439,-5.8442,-5.8444,0,0,0,0,0,0,0,-5.8171,-5.8187,-5.835,-5.8297,-5.8296,-5.8276,-5.8284,-5.8369,-5.8375,-5.8316,-5.8311,-5.8322,-5.8385,-5.8413,-5.8421,-5.8554,-5.8434,-5.8441,-5.8445,-5.8448,-5.8794,-5.8799,0,0,0,0,0,0,-5.8168,-5.8182,-5.8347,-5.8352,-5.8223,-5.8284,-5.8293,-5.8336,-5.8374,-5.8375,-5.8326,-5.8319,-5.8402,-5.8413,-5.8424,-5.858,-5.8442,-5.8449,-5.8453,-5.879,-5.8796,-5.8801,0,0,0,0,0,0,-5.8163,-5.8183,-5.8344,-5.8266,-5.8285,-5.8292,-5.8342,-5.834,-5.8367,-5.8381,-5.8381,-5.8353,-5.8399,-5.8413,-5.8515,-5.8582,-5.8452,-5.8459,-5.8784,-5.8792,-5.8798,-5.8896,0,0,0,0,0,0,-5.8157,-5.8182,-5.8235,-5.8268,-5.8289,-5.8436,-5.8346,-5.8345,-5.8381,-5.8372,-5.8407,-5.8408,-5.8397,-5.8505,-5.8523,-5.8589,-5.8464,-5.8778,-5.8787,-5.8796,-5.8887,-5.8906,-5.8922,0,0,0,0,0,-5.8149,-5.8259,-5.8238,-5.8258,-5.8356,-5.844,-5.8452,-5.8438,-5.8387,-5.8438,-5.8447,-5.8407,-5.8573,-5.8516,-5.8535,-5.8605,-5.8774,-5.8785,-5.8795,-5.8879,-5.8902,-5.8921,0,0,0,0,0,0,-5.8233,-5.8263,-5.824,-5.8364,-5.8401,-5.8428,-5.8492,-5.8464,-5.8514,-5.8503,-5.8482,-5.8491,-5.8598,-5.8613,-5.8549,-5.8736,-5.8664,-5.868,-5.8721,-5.8743,-5.8761,-5.8752,-5.8471,0,0,0,0,0,-5.8266,-5.8334,-5.8357,-5.8464,-5.8483,-5.8486,-5.8522,-5.8508,-5.8544,-5.8558,-5.8574,-5.8609,-5.8668,-5.8707,-5.8763,-5.889,-5.8894,-5.8948,-5.8965,-5.898,-5.8991,-5.9055,-5.9077,-5.8836,-5.8836,-5.8836,0,0,-5.8335,-5.836,-5.8404,-5.8481,-5.8507,-5.8575,-5.8498,-5.8575,-5.8624,-5.8569,-5.8665,-5.8679,-5.8716,-5.883,-5.8881,-5.8845,-5.906,-5.8994,-5.9005,-5.9009,-5.9068,-5.9091,-5.9111,-5.8843,-5.8842,-5.8841,0,0,-5.8493,-5.8521,-5.8611,-5.8639,-5.8681,-5.8681,-5.8703,-5.8735,-5.8741,-5.8839,-5.8798,-5.8856,-5.896,-5.8987,-5.9014,-5.9182,-5.9145,-5.9201,-5.929,-5.9352,-5.9371,-5.9388,-5.9443,-5.9463,-5.9214,-5.9214,-5.9214,0,-5.8572,-5.8674,-5.8661,-5.8739,-5.8772,-5.8728,-5.8817,-5.8845,-5.8902,-5.8924,-5.8885,-5.9012,-5.9035,-5.9152,-5.9193,-5.9219,-5.9239,-5.9194,-5.937,-5.9387,-5.9402,-5.9454,-5.9475,-5.922,-5.922,-5.9219,-5.9218,0,-5.8767,-5.8839,-5.8906,-5.8962,-5.9004,-5.9088,-5.9084,-5.9128,-5.9111,-5.9115,-5.9212,-5.9238,-5.9296,-5.9324,-5.9308,-5.9438,-5.9414,-5.9374,-5.93,-5.9431,-5.9479,-5.9499,-5.9229,-5.9227,-5.9225,-5.9223,0,0,-5.8977,-5.9025,-5.9049,-5.9072,-5.9115,-5.9168,-5.9249,-5.9307,-5.9342,-5.9384,-5.9448,-5.9537,-5.9498,-5.9529,-5.9516,-5.9572,-5.9697,-5.9523,-5.9524,-5.955,-5.9836,-5.9862,-5.9886,-5.9675,-5.9679,-5.9682,-5.9831,0,-5.9132,-5.9273,-5.9263,-5.9394,-5.9457,-5.9416,-5.9485,-5.9517,-5.9524,-5.9577,-5.9583,-5.9644,-5.9592,-5.961,-5.9663,-5.967,-5.9753,-5.966,-5.973,-5.9733,-5.9716,-5.9912,-5.994,-6.0079,-5.985,-5.9853,-5.9856,0,-5.9332,-5.9379,-5.9517,-5.9547,-5.9573,-5.9636,-5.9686,-5.9739,-5.9774,-5.9774,-5.9809,-5.9786,-5.9864,-5.9794,-5.9898,-5.9835,-5.9864,-5.9872,-5.9877,-5.9878,-5.9798,-5.9913,-6.0124,-6.0142,-5.9886,-5.9884,-5.9882,0,-5.9464,-5.9563,-5.9657,-5.9679,-5.9718,-5.9762,-5.978,-5.9811,-5.9845,-5.989,-5.9911,-5.9964,-5.9992,-6.0032,-6.0023,-5.9974,-6.0129,-6.0059,-6.0127,-6.0127,-6.0157,-6.0154,-6.0369,-6.0186,-6.0185,-6.0185,-6.0185,0,-5.9635,-5.9719,-5.9716,-5.9774,-5.9866,-5.9854,-5.9944,-5.9957,-5.9984,-6.0041,-6.0011,-6.0064,-6.0052,-6.0105,-6.0099,-6.0184,-6.0198,-6.0197,-6.0194,-6.0197,-6.0196,-6.0211,-6.0199,-6.019,-6.0189,-6.0188,-6.0187,0,-5.9795,-5.9798,-5.9897,-5.9926,-5.9935,-6.0001,-6.0024,-6.0077,-6.0081,-6.0153,-6.0169,-6.0175,-6.0236,-6.0232,-6.0301,-6.0297,-6.0399,-6.0388,-6.0387,-6.0383,-6.0449,-6.0441,-6.0677,-6.0705,-6.0508,-6.051,-6.0512,0,-5.9902,-5.9965,-6.0001,-6.0037,-6.0058,-6.0118,-6.0152,-6.0143,-6.018,-6.0224,-6.027,-6.0328,-6.0373,-6.0471,-6.048,-6.0531,-6.0516,-6.0596,-6.0523,-6.0523,-6.051,-6.0504,-6.0508,-6.0608,-6.061,-6.0612,-6.0613,0,-6.0088,-6.0085,-6.0138,-6.019,-6.0233,-6.0274,-6.0311,-6.0342,-6.0336,-6.0379,-6.0441,-6.0476,-6.0545,-6.0601,-6.065,-6.0666,-6.0637,-6.0637,-6.0654,-6.0655,-6.065,-6.0648,-6.042,-6.063,-6.0628,-6.0627,-6.0626,-6.0626,-6.022,-6.0273,-6.0306,-6.0364,-6.0392,-6.0427,-6.0476,-6.0487,-6.0539,-6.0594,-6.0586,-6.0654,-6.0684,-6.0747,-6.0768,-6.0819,-6.079,-6.0817,-6.0823,-6.0828,-6.0833,-6.0647,-6.0829,-6.0829,-6.0828,-6.0828,-6.0827,0,-6.0399,-6.0418,-6.0473,-6.0525,-6.0571,-6.0543,-6.0583,-6.0621,-6.0681,-6.0714,-6.0759,-6.0828,-6.0882,-6.0896,-6.0947,-6.0985,-6.0973,-6.0998,-6.0992,-6.0995,-6.0859,-6.0836,-6.1007,-6.1007,-6.1007,-6.1007,-6.1007,-6.1007,-6.0497,-6.0584,-6.0586,-6.0685,-6.0703,-6.0769,-6.0793,-6.0825,-6.0849,-6.0928,-6.0973,-6.0983,-6.1006,-6.1059,-6.1107,-6.1109,-6.1127,-6.1157,-6.1153,-6.1024,-6.1006,-6.0988,-6.0966,-6.1162,-6.1162,-6.1285,-6.1286,-6.1287]},{"header":{"parameterUnit":"m.s-1","parameterCategory":1,"la1":30.2991,"la2":30.254,"lo1":-89.0895,"lo2":-89.0444,"dy":0.0017,"dx":0.0017,"nx":28,"ny":28,"refTime":"2024-08-22T09:00:00:Z","depth":0,"parameterNumber":3,"parameterNumberName":"V-component_of_WINDS"},"data":[0,0,0,0,0,0,0,0,0,0,0,0,0,0,0,0,0,0,0,0,0,0,0,0,0,0,0,0,0,0,0,0,0,0,0,0,0,0,0,0,0,0,0,0,0,0,0,0,0,0,0,0,0,0,0,0,0,0,0.8617,0.8616,0,0.8513,0.8512,0.8511,0.8364,0.8362,0.8359,0.8357,0.8256,0.8256,0.8255,0,0,0,0,0,0,0,0,0,0,0,0,0,0.8696,0.8695,0.8618,0.8616,0.8615,0.8513,0.8512,0.851,0.8365,0.8362,0.8359,0.8356,0.8256,0.8256,0.8255,0,0,0,0,0,0,0,0,0,0,0,0,0,0.8634,0.8695,0.8618,0.853,0.8521,0.8514,0.8512,0.851,0.8366,0.8362,0.8358,0.8354,0.8256,0.8256,0.8255,0.8327,0,0,0.8254,0.8253,0,0,0,0,0,0,0,0,0.8638,0.8631,0.8544,0.8536,0.8526,0.8448,0.8502,0.8449,0.8366,0.8425,0.8357,0.8353,0.8323,0.8317,0.8306,0.8322,0.8318,0.8254,0.8253,0.8253,0.8253,0,0,0,0,0,0,0,0.8642,0.8635,0.8576,0.8543,0.8532,0.8497,0.8484,0.8491,0.8397,0.8419,0.8408,0.8398,0.8318,0.8307,0.8302,0.8317,0.8254,0.8253,0.8253,0.8253,0.8388,0.8392,0,0,0,0,0,0,0.8659,0.864,0.858,0.8573,0.8573,0.8499,0.8484,0.8477,0.8396,0.838,0.8401,0.8391,0.8309,0.8303,0.8298,0.8378,0.8253,0.8252,0.8252,0.8384,0.8389,0.8393,0,0,0,0,0,0,0.8661,0.8655,0.8584,0.8603,0.8592,0.8502,0.8494,0.8477,0.8465,0.8382,0.8365,0.8407,0.8306,0.8299,0.8321,0.8372,0.8252,0.8252,0.838,0.8386,0.8391,0.8538,0,0,0,0,0,0,0.8664,0.8656,0.8682,0.8605,0.8591,0.8607,0.8497,0.8477,0.8464,0.8451,0.8383,0.8369,0.8303,0.8323,0.832,0.837,0.8251,0.8375,0.8382,0.8389,0.8528,0.8548,0.8566,0,0,0,0,0,0.8667,0.8728,0.8684,0.8677,0.8621,0.861,0.8603,0.8524,0.8469,0.8495,0.8441,0.8371,0.8367,0.8326,0.8322,0.8372,0.8371,0.838,0.8389,0.852,0.8545,0.8565,0,0,0,0,0,0,0.8815,0.8717,0.8666,0.8704,0.8667,0.8586,0.8615,0.8552,0.8531,0.8519,0.8424,0.841,0.8445,0.841,0.8366,0.8438,0.8358,0.8367,0.846,0.8482,0.85,0.8509,0.8251,0,0,0,0,0,0.8852,0.8851,0.8765,0.8807,0.879,0.8707,0.8699,0.8641,0.86,0.8584,0.8531,0.8495,0.8486,0.8482,0.8468,0.8522,0.8507,0.8555,0.8574,0.8589,0.8598,0.8626,0.8647,0.8422,0.8422,0.8422,0,0,0.8929,0.8875,0.888,0.8835,0.8799,0.8801,0.8694,0.8701,0.8702,0.8585,0.8602,0.8563,0.8516,0.8555,0.857,0.8528,0.8656,0.86,0.8614,0.8614,0.8637,0.8658,0.8677,0.8428,0.8427,0.8426,0,0,0.907,0.9028,0.9058,0.9024,0.8971,0.8915,0.8922,0.8851,0.882,0.8835,0.8748,0.8749,0.8734,0.8704,0.8688,0.8818,0.8753,0.8816,0.8914,0.8942,0.8959,0.8975,0.9023,0.9041,0.8825,0.8825,0.8826,0,0.9172,0.917,0.9082,0.9094,0.9078,0.897,0.9002,0.8973,0.892,0.8912,0.8865,0.8844,0.8805,0.8836,0.8868,0.8857,0.8864,0.8824,0.8963,0.8978,0.8991,0.9036,0.9054,0.8834,0.8833,0.8832,0.8831,0,0.93,0.93,0.9331,0.928,0.9267,0.9289,0.9206,0.9204,0.9148,0.9097,0.9115,0.9064,0.9039,0.9042,0.8987,0.9066,0.9041,0.898,0.8899,0.9022,0.9062,0.9079,0.8845,0.8842,0.884,0.8838,0,0,0.9532,0.9431,0.9445,0.942,0.9354,0.9353,0.9371,0.9344,0.9345,0.9311,0.9325,0.9315,0.9258,0.9239,0.918,0.9205,0.9313,0.9141,0.9138,0.9176,0.9398,0.9445,0.9466,0.9269,0.9272,0.9274,0.9402,0,0.9661,0.9684,0.9606,0.9649,0.9649,0.9547,0.9562,0.9524,0.9478,0.9472,0.9421,0.9416,0.9341,0.9329,0.9348,0.9296,0.9357,0.9285,0.9283,0.9284,0.93,0.9487,0.9537,0.9661,0.9417,0.942,0.9422,0,0.9815,0.9788,0.9832,0.9763,0.976,0.9775,0.9745,0.974,0.9695,0.966,0.9639,0.957,0.9585,0.9505,0.9525,0.9478,0.9473,0.9447,0.945,0.9448,0.9362,0.9493,0.9698,0.9718,0.9446,0.9444,0.9442,0,0.9983,0.9957,0.998,0.9962,0.9882,0.9895,0.9863,0.9814,0.9803,0.9777,0.977,0.9747,0.9735,0.972,0.9648,0.9596,0.9677,0.9591,0.965,0.9652,0.9673,0.9673,0.9883,0.9667,0.9667,0.9666,0.9666,0,1.0136,1.0167,1.0054,1.0069,1.0101,1.0011,1.0046,1.0003,0.9961,0.9967,0.9877,0.9885,0.9788,0.9785,0.9729,0.9755,0.975,0.9723,0.9708,0.9732,0.9736,0.9729,0.9719,0.9671,0.967,0.9669,0.9668,0,1.0329,1.0254,1.0273,1.0195,1.0176,1.0204,1.0137,1.0149,1.0096,1.0104,1.0101,1.0019,1.0012,0.9938,0.9915,0.9877,0.9925,0.9893,0.994,0.9931,0.9994,0.999,1.0208,1.0233,1.0,1.0002,1.0004,0,1.0433,1.0454,1.0378,1.0375,1.0346,1.0342,1.033,1.0243,1.0235,1.0185,1.0203,1.0188,1.0171,1.0164,1.0104,1.0086,1.0054,1.0131,1.0051,1.0075,1.0057,1.0058,1.006,1.015,1.0153,1.0155,1.0157,0,1.0626,1.0587,1.0573,1.0546,1.0535,1.051,1.0479,1.0482,1.0386,1.0382,1.0372,1.0359,1.0335,1.0322,1.0293,1.0261,1.0195,1.0182,1.0195,1.0221,1.0248,1.0236,0.9989,1.0178,1.0176,1.0175,1.0173,1.0173,1.0778,1.0793,1.0741,1.0729,1.0697,1.067,1.0677,1.0625,1.0614,1.0587,1.0536,1.0535,1.049,1.0444,1.0418,1.0417,1.0377,1.0395,1.04,1.0407,1.0421,1.0247,1.0411,1.041,1.041,1.0409,1.0409,0,1.0968,1.0929,1.0918,1.0878,1.0869,1.0804,1.0767,1.0765,1.0764,1.0727,1.0712,1.0702,1.0688,1.0627,1.0608,1.0619,1.0588,1.0617,1.0616,1.0611,1.0456,1.0448,1.0642,1.0642,1.0642,1.0642,1.0642,1.0642,1.1065,1.1087,1.1043,1.1048,1.101,1.1006,1.0991,1.0967,1.0937,1.0929,1.0917,1.0876,1.083,1.0807,1.0793,1.0775,1.0773,1.0813,1.0786,1.0644,1.0621,1.06,1.0591,1.0813,1.0813,1.094,1.0941,1.0942]}]]